| time (UTC) | temp F | wind direction | speed knots | gust knots | rain 1hr in | rain 24hr in | rain mn in | humidity % | barometer mb |
| 20260505032626 | 67 | 167 | 1.7 | 5.2 | 0.00 | 0.00 | 0.00 | 62 | 1018.2 |
| 20260505032113 | 67 | 245 | 1.7 | 5.2 | 0.00 | 0.00 | 0.00 | 60 | 1018.2 |
| 20260505031628 | 67 | 225 | 2.6 | 5.2 | 0.00 | 0.00 | 0.00 | 62 | 1018.3 |
| 20260505031115 | 66 | 136 | 2.6 | 5.2 | 0.00 | 0.00 | 0.00 | 64 | 1018.3 |
| 20260505030629 | 66 | 134 | 2.6 | 8.7 | 0.00 | 0.00 | 0.00 | 65 | 1018.4 |
| 20260505030116 | 66 | 44 | 3.5 | 8.7 | 0.00 | 0.00 | 0.00 | 66 | 1018.4 |
| 20260505025610 | 66 | 109 | 2.6 | 9.6 | 0.00 | 0.00 | 0.00 | 65 | 1018.4 |
| 20260505025122 | 66 | 65 | 3.5 | 9.6 | 0.00 | 0.00 | 0.00 | 65 | 1018.5 |
| 20260505024631 | 65 | 63 | 4.3 | 6.1 | 0.00 | 0.00 | 0.00 | 65 | 1018.6 |
| 20260505024141 | 65 | 48 | 3.5 | 7.0 | 0.00 | 0.00 | 0.00 | 65 | 1018.6 |
| 20260505023633 | 65 | 56 | 2.6 | 7.0 | 0.00 | 0.00 | 0.00 | 64 | 1018.8 |
| 20260505023120 | 65 | 342 | 2.6 | 6.1 | 0.00 | 0.00 | 0.00 | 65 | 1018.8 |
| 20260505022633 | 65 | 309 | 3.5 | 6.1 | 0.00 | 0.00 | 0.00 | 65 | 1019.0 |
| 20260505022119 | 65 | 74 | 2.6 | 8.7 | 0.00 | 0.00 | 0.00 | 67 | 1019.0 |
| 20260505021611 | 64 | 82 | 3.5 | 8.7 | 0.00 | 0.00 | 0.00 | 67 | 1018.9 |
| 20260505021122 | 64 | 59 | 4.3 | 7.8 | 0.00 | 0.00 | 0.00 | 66 | 1018.9 |
| 20260505020615 | 64 | 103 | 3.5 | 6.1 | 0.00 | 0.00 | 0.00 | 67 | 1018.9 |
| 20260505020122 | 64 | 75 | 4.3 | 7.0 | 0.00 | 0.00 | 0.00 | 66 | 1019.0 |
| 20260505015635 | 64 | 58 | 2.6 | 7.0 | 0.00 | 0.00 | 0.00 | 66 | 1019.1 |
| 20260505015120 | 64 | 75 | 4.3 | 7.0 | 0.00 | 0.00 | 0.00 | 66 | 1019.0 |
| 20260505014611 | 64 | 114 | 1.7 | 7.0 | 0.00 | 0.00 | 0.00 | 66 | 1019.0 |
| 20260505014123 | 64 | 53 | 3.5 | 6.1 | 0.00 | 0.00 | 0.00 | 67 | 1019.0 |
| 20260505013635 | 64 | 82 | 3.5 | 7.0 | 0.00 | 0.00 | 0.00 | 67 | 1019.1 |
| 20260505013123 | 63 | 45 | 4.3 | 7.0 | 0.00 | 0.00 | 0.00 | 69 | 1019.1 |
| 20260505012634 | 63 | 64 | 4.3 | 7.8 | 0.00 | 0.00 | 0.00 | 69 | 1019.1 |
| 20260505012115 | 63 | 116 | 3.5 | 7.8 | 0.00 | 0.00 | 0.00 | 70 | 1019.1 |
| 20260505011626 | 63 | 77 | 4.3 | 7.8 | 0.00 | 0.00 | 0.00 | 70 | 1019.0 |
| 20260505011137 | 63 | 54 | 3.5 | 6.1 | 0.00 | 0.00 | 0.00 | 71 | 1019.1 |
| 20260505010621 | 63 | 302 | 4.3 | 6.1 | 0.00 | 0.00 | 0.00 | 71 | 1019.1 |
| 20260505010134 | 63 | 14 | 3.5 | 6.1 | 0.00 | 0.00 | 0.00 | 72 | 1019.0 |
| 20260505005618 | 63 | 328 | 2.6 | 7.0 | 0.00 | 0.00 | 0.00 | 73 | 1019.0 |
| 20260505005123 | 62 | 56 | 3.5 | 7.0 | 0.00 | 0.00 | 0.00 | 72 | 1019.0 |
| 20260505004656 | 63 | 24 | 1.7 | 6.1 | 0.00 | 0.00 | 0.00 | 73 | 1018.9 |
| 20260505004117 | 62 | 12 | 1.7 | 6.1 | 0.00 | 0.00 | 0.00 | 74 | 1018.9 |
| 20260505003628 | 62 | 139 | 1.7 | 7.0 | 0.00 | 0.00 | 0.00 | 73 | 1018.8 |
| 20260505003114 | 62 | 62 | 4.3 | 8.7 | 0.00 | 0.00 | 0.00 | 73 | 1018.8 |
| 20260505002625 | 62 | 34 | 3.5 | 8.7 | 0.00 | 0.00 | 0.00 | 72 | 1018.9 |
| 20260505002137 | 62 | 317 | 3.5 | 6.1 | 0.00 | 0.00 | 0.00 | 72 | 1018.8 |
| 20260505001621 | 62 | 61 | 2.6 | 5.2 | 0.00 | 0.00 | 0.00 | 71 | 1018.8 |
| 20260505001134 | 62 | 335 | 1.7 | 5.2 | 0.00 | 0.00 | 0.00 | 72 | 1018.7 |
| 20260505000618 | 62 | 9 | 1.7 | 5.2 | 0.00 | 0.00 | 0.00 | 72 | 1018.7 |
| 20260505000112 | 61 | 184 | 1.7 | 5.2 | 0.00 | 0.00 | 0.00 | 72 | 1018.7 |
| 20260504235121 | 61 | 329 | 0.9 | 5.2 | 0.00 | 0.00 | 0.00 | 71 | 1018.8 |
| 20260504234632 | 60 | 128 | 1.7 | 5.2 | 0.00 | 0.00 | 0.00 | 71 | 1018.9 |
| 20260504234117 | 60 | 305 | 1.7 | 7.0 | 0.00 | 0.00 | 0.00 | 71 | 1018.8 |
| 20260504233629 | 60 | 98 | 1.7 | 7.0 | 0.00 | 0.00 | 0.00 | 71 | 1018.8 |
| 20260504233113 | 60 | 96 | 2.6 | 4.3 | 0.00 | 0.00 | 0.00 | 71 | 1018.8 |
| 20260504232623 | 60 | 96 | 1.7 | 3.5 | 0.00 | 0.00 | 0.00 | 72 | 1018.8 |
| 20260504232134 | 60 | 82 | 1.7 | 4.3 | 0.00 | 0.00 | 0.00 | 72 | 1018.6 |
| 20260504231619 | 60 | 82 | 2.6 | 4.3 | 0.00 | 0.00 | 0.00 | 73 | 1018.5 |
| 20260504231125 | 59 | 35 | 1.7 | 3.5 | 0.00 | 0.00 | 0.00 | 73 | 1018.6 |
| 20260504230635 | 59 | 65 | 1.7 | 4.3 | 0.00 | 0.00 | 0.00 | 74 | 1018.6 |
| 20260504230119 | 59 | 147 | 1.7 | 4.3 | 0.00 | 0.00 | 0.00 | 75 | 1018.5 |
| 20260504225610 | 59 | 176 | 0.9 | 3.5 | 0.00 | 0.00 | 0.00 | 75 | 1018.4 |
| 20260504225120 | 58 | 180 | 0.9 | 2.6 | 0.00 | 0.00 | 0.00 | 77 | 1018.5 |
| 20260504224631 | 58 | 158 | 0.0 | 2.6 | 0.00 | 0.00 | 0.00 | 79 | 1018.5 |
| 20260504224116 | 58 | 78 | 0.9 | 1.7 | 0.00 | 0.00 | 0.00 | 80 | 1018.4 |
| 20260504223627 | 57 | 174 | 0.0 | 0.9 | 0.00 | 0.00 | 0.00 | 82 | 1018.3 |
| 20260504223133 | 56 | 174 | 0.0 | 3.5 | 0.00 | 0.00 | 0.00 | 82 | 1018.3 |
| 20260504222616 | 56 | 186 | 0.9 | 3.5 | 0.00 | 0.00 | 0.00 | 82 | 1018.3 |
| 20260504222149 | 56 | 196 | 0.9 | 2.6 | 0.00 | 0.00 | 0.00 | 83 | 1018.3 |
| 20260504221611 | 55 | 179 | 0.0 | 2.6 | 0.00 | 0.00 | 0.00 | 84 | 1018.4 |
| 20260504221122 | 55 | 194 | 0.9 | 2.6 | 0.00 | 0.00 | 0.00 | 85 | 1018.2 |
| 20260504220633 | 54 | 186 | 0.0 | 3.5 | 0.00 | 0.00 | 0.00 | 86 | 1018.3 |
| 20260504220117 | 54 | 205 | 1.7 | 3.5 | 0.00 | 0.00 | 0.00 | 87 | 1018.2 |
| 20260504215648 | 53 | 182 | 0.9 | 2.6 | 0.00 | 0.00 | 0.00 | 88 | 1018.1 |
| 20260504215136 | 53 | 188 | 0.9 | 1.7 | 0.00 | 0.00 | 0.00 | 88 | 1018.2 |
| 20260504214642 | 52 | 187 | 0.9 | 2.6 | 0.00 | 0.00 | 0.00 | 89 | 1018.2 |
| 20260504214153 | 52 | 176 | 0.9 | 2.6 | 0.00 | 0.00 | 0.00 | 89 | 1018.1 |
| 20260504213617 | 51 | 185 | 0.9 | 2.6 | 0.00 | 0.00 | 0.00 | 90 | 1017.9 |
| 20260504213127 | 51 | 186 | 1.7 | 2.6 | 0.00 | 0.00 | 0.00 | 90 | 1017.9 |
| 20260504212611 | 50 | 186 | 0.9 | 3.5 | 0.00 | 0.00 | 0.00 | 90 | 1017.9 |
| 20260504212113 | 50 | 183 | 0.9 | 3.5 | 0.00 | 0.00 | 0.00 | 90 | 1017.8 |
| 20260504211624 | 50 | 195 | 1.7 | 2.6 | 0.00 | 0.00 | 0.00 | 90 | 1017.7 |
| 20260504211110 | 49 | 200 | 1.7 | 2.6 | 0.00 | 0.00 | 0.00 | 91 | 1017.8 |
| 20260504210621 | 49 | 191 | 0.9 | 1.7 | 0.00 | 0.00 | 0.00 | 91 | 1017.7 |
| 20260504210134 | 49 | 168 | 0.9 | 0.9 | 0.00 | 0.00 | 0.00 | 90 | 1017.7 |
| 20260504205620 | 48 | 167 | 0.0 | 0.9 | 0.00 | 0.00 | 0.00 | 90 | 1017.6 |
| 20260504205152 | 48 | 167 | 0.0 | 0.9 | 0.00 | 0.00 | 0.00 | 90 | 1017.7 |
| 20260504204617 | 48 | 167 | 0.0 | 0.9 | 0.00 | 0.00 | 0.00 | 90 | 1017.7 |
| 20260504204110 | 48 | 167 | 0.0 | 0.9 | 0.00 | 0.00 | 0.00 | 90 | 1017.7 |
| 20260504203638 | 48 | 167 | 0.0 | 0.9 | 0.00 | 0.00 | 0.00 | 90 | 1017.6 |
| 20260504203125 | 48 | 168 | 0.0 | 0.9 | 0.00 | 0.00 | 0.00 | 90 | 1017.5 |
| 20260504202611 | 48 | 167 | 0.0 | 0.0 | 0.00 | 0.00 | 0.00 | 89 | 1017.6 |
| 20260504202128 | 48 | 168 | 0.0 | 0.0 | 0.00 | 0.00 | 0.00 | 89 | 1017.6 |
| 20260504201615 | 48 | 167 | 0.0 | 0.0 | 0.00 | 0.00 | 0.00 | 89 | 1017.5 |
| 20260504201128 | 48 | 168 | 0.0 | 0.9 | 0.00 | 0.00 | 0.00 | 89 | 1017.5 |
| 20260504200615 | 48 | 168 | 0.9 | 0.9 | 0.00 | 0.00 | 0.00 | 90 | 1017.4 |
| 20260504200128 | 48 | 168 | 0.0 | 0.9 | 0.00 | 0.00 | 0.00 | 90 | 1017.5 |
| 20260504195615 | 48 | 168 | 0.0 | 0.9 | 0.00 | 0.00 | 0.00 | 89 | 1017.3 |
| 20260504195130 | 49 | 168 | 0.0 | 1.7 | 0.00 | 0.00 | 0.00 | 89 | 1017.3 |
| 20260504194612 | 49 | 168 | 0.9 | 1.7 | 0.00 | 0.00 | 0.00 | 90 | 1017.2 |
| 20260504194125 | 49 | 167 | 0.9 | 1.7 | 0.00 | 0.00 | 0.00 | 90 | 1017.2 |
| 20260504193613 | 48 | 167 | 0.0 | 0.9 | 0.00 | 0.00 | 0.00 | 89 | 1017.1 |
| 20260504193127 | 48 | 167 | 0.0 | 0.9 | 0.00 | 0.00 | 0.00 | 89 | 1017.0 |
| 20260504192634 | 49 | 167 | 0.0 | 0.9 | 0.00 | 0.00 | 0.00 | 89 | 1017.0 |
| 20260504192127 | 49 | 167 | 0.0 | 0.0 | 0.00 | 0.00 | 0.00 | 89 | 1017.1 |
| 20260504191616 | 49 | 167 | 0.0 | 0.9 | 0.00 | 0.00 | 0.00 | 90 | 1017.1 |
| 20260504191129 | 49 | 167 | 0.0 | 0.9 | 0.00 | 0.00 | 0.00 | 89 | 1016.9 |
| 20260504190640 | 49 | 167 | 0.0 | 0.9 | 0.00 | 0.00 | 0.00 | 89 | 1016.9 |
| 20260504190128 | 49 | 167 | 0.9 | 0.9 | 0.00 | 0.00 | 0.00 | 90 | 1016.8 |
| 20260504185618 | 49 | 176 | 0.0 | 0.9 | 0.00 | 0.00 | 0.00 | 89 | 1016.8 |
| 20260504185130 | 49 | 178 | 0.9 | 0.9 | 0.00 | 0.00 | 0.00 | 89 | 1016.7 |
| 20260504184619 | 49 | 178 | 0.0 | 0.9 | 0.00 | 0.00 | 0.00 | 89 | 1016.8 |
| 20260504184132 | 49 | 178 | 0.9 | 0.9 | 0.00 | 0.00 | 0.00 | 89 | 1016.6 |
| 20260504183621 | 49 | 178 | 0.0 | 1.7 | 0.00 | 0.00 | 0.00 | 89 | 1016.6 |
| 20260504183134 | 49 | 179 | 0.9 | 1.7 | 0.00 | 0.00 | 0.00 | 89 | 1016.5 |
| 20260504182617 | 49 | 158 | 0.0 | 0.9 | 0.00 | 0.00 | 0.00 | 89 | 1016.6 |
| 20260504182128 | 49 | 158 | 0.0 | 0.9 | 0.00 | 0.00 | 0.00 | 89 | 1016.4 |
| 20260504181616 | 49 | 158 | 0.0 | 0.0 | 0.00 | 0.00 | 0.00 | 89 | 1016.5 |
| 20260504181130 | 50 | 158 | 0.0 | 0.0 | 0.00 | 0.00 | 0.00 | 89 | 1016.4 |
| 20260504180616 | 50 | 158 | 0.0 | 0.9 | 0.00 | 0.00 | 0.00 | 89 | 1016.5 |
| 20260504180130 | 50 | 158 | 0.0 | 0.9 | 0.00 | 0.00 | 0.00 | 89 | 1016.4 |
| 20260504175616 | 50 | 158 | 0.9 | 0.9 | 0.00 | 0.00 | 0.00 | 89 | 1016.3 |
| 20260504175130 | 50 | 158 | 0.0 | 0.9 | 0.00 | 0.00 | 0.00 | 89 | 1016.4 |
| 20260504174615 | 50 | 158 | 0.0 | 0.9 | 0.00 | 0.00 | 0.00 | 89 | 1016.3 |
| 20260504174126 | 50 | 158 | 0.0 | 0.0 | 0.00 | 0.00 | 0.00 | 89 | 1016.4 |
| 20260504173636 | 50 | 158 | 0.0 | 0.0 | 0.00 | 0.00 | 0.00 | 88 | 1016.3 |
| 20260504172617 | 50 | 158 | 0.0 | 0.0 | 0.00 | 0.00 | 0.00 | 88 | 1016.2 |
| 20260504172130 | 50 | 158 | 0.0 | 0.9 | 0.00 | 0.00 | 0.00 | 88 | 1016.2 |
| 20260504171640 | 50 | 158 | 0.0 | 0.9 | 0.00 | 0.00 | 0.00 | 88 | 1016.1 |
| 20260504171132 | 50 | 158 | 0.0 | 1.7 | 0.00 | 0.00 | 0.00 | 89 | 1016.1 |
| 20260504170616 | 50 | 158 | 0.9 | 1.7 | 0.00 | 0.00 | 0.00 | 88 | 1016.1 |
| 20260504170130 | 50 | 154 | 0.0 | 0.9 | 0.00 | 0.00 | 0.00 | 88 | 1016.0 |
| 20260504160118 | 51 | 154 | 0.0 | 0.9 | 0.00 | 0.00 | 0.00 | 87 | 1015.8 |
| 20260504150637 | 52 | 155 | 0.0 | 0.0 | 0.00 | 0.00 | 0.00 | 86 | 1016.1 |
| 20260504150128 | 52 | 155 | 0.0 | 0.0 | 0.00 | 0.00 | 0.00 | 86 | 1016.1 |
| 20260504141112 | 53 | 154 | 0.0 | 0.9 | 0.00 | 0.00 | 0.00 | 84 | 1016.0 |
| 20260504140644 | 53 | 154 | 0.0 | 0.9 | 0.00 | 0.00 | 0.00 | 84 | 1016.0 |
| 20260504140133 | 53 | 154 | 0.0 | 0.9 | 0.00 | 0.00 | 0.00 | 85 | 1016.0 |
| 20260504130615 | 54 | 148 | 0.0 | 0.0 | 0.00 | 0.00 | 0.00 | 83 | 1015.8 |
| 20260504130129 | 54 | 148 | 0.0 | 0.9 | 0.00 | 0.00 | 0.00 | 82 | 1015.7 |
| 20260504120114 | 55 | 168 | 0.9 | 1.7 | 0.00 | 0.04 | 0.00 | 80 | 1014.9 |
| 20260504110638 | 58 | 155 | 0.0 | 0.9 | 0.00 | 0.04 | 0.00 | 76 | 1013.9 |
| 20260504110153 | 58 | 155 | 0.0 | 0.9 | 0.00 | 0.35 | 0.00 | 75 | 1013.9 |
| 20260504100615 | 61 | 113 | 0.0 | 2.6 | 0.00 | 0.35 | 0.00 | 69 | 1013.1 |
| 20260504100126 | 61 | 139 | 1.7 | 2.6 | 0.00 | 0.63 | 0.00 | 69 | 1013.2 |
| 20260504090141 | 62 | 158 | 1.7 | 12.2 | 0.00 | 0.87 | 0.00 | 67 | 1012.6 |
| 20260504081627 | 64 | 150 | 2.6 | 12.2 | 0.00 | 0.87 | 0.00 | 64 | 1012.4 |
| 20260504081111 | 63 | 181 | 4.3 | 12.2 | 0.00 | 0.87 | 0.00 | 63 | 1012.4 |
| 20260504080612 | 64 | 75 | 3.5 | 12.2 | 0.00 | 0.87 | 0.00 | 62 | 1012.6 |
| 20260504080123 | 64 | 126 | 3.5 | 10.4 | 0.00 | 1.93 | 0.00 | 63 | 1012.4 |
| 20260504070129 | 64 | 98 | 2.6 | 16.5 | 0.00 | 4.41 | 0.00 | 62 | 1012.0 |
| 20260504060113 | 64 | 160 | 5.2 | 18.2 | 0.00 | 6.14 | 0.00 | 59 | 1011.3 |
| 20260504050621 | 66 | 109 | 5.2 | 13.9 | 0.00 | 6.14 | 0.00 | 52 | 1010.8 |
| 20260504050132 | 66 | 110 | 5.2 | 11.3 | 0.00 | 7.40 | 0.00 | 53 | 1010.8 |
| 20260504045616 | 66 | 191 | 4.3 | 19.1 | 0.00 | 7.40 | 0.00 | 45 | 1010.7 |
| 20260504045129 | 66 | 157 | 7.0 | 19.1 | 0.00 | 7.40 | 0.00 | 46 | 1010.8 |
| 20260504044633 | 66 | 181 | 4.3 | 14.8 | 0.00 | 7.40 | 0.00 | 51 | 1010.7 |
| 20260504044120 | 66 | 120 | 2.6 | 14.8 | 0.00 | 7.40 | 0.00 | 56 | 1010.7 |
| 20260504043633 | 66 | 134 | 4.3 | 12.2 | 0.00 | 7.40 | 0.00 | 54 | 1010.6 |
| 20260504043120 | 66 | 186 | 5.2 | 14.8 | 0.00 | 7.40 | 0.00 | 55 | 1010.5 |
| 20260504042628 | 66 | 172 | 5.2 | 14.8 | 0.00 | 7.40 | 0.00 | 55 | 1010.5 |
| 20260504042136 | 67 | 134 | 6.1 | 12.2 | 0.00 | 7.40 | 0.00 | 54 | 1010.5 |
| 20260504041628 | 66 | 120 | 7.8 | 15.6 | 0.00 | 7.40 | 0.00 | 54 | 1010.4 |
| 20260504041111 | 66 | 79 | 5.2 | 23.5 | 0.00 | 7.40 | 0.00 | 57 | 1010.3 |
| 20260504040623 | 66 | 136 | 7.8 | 23.5 | 0.00 | 7.40 | 0.00 | 56 | 1010.3 |
| 20260504040135 | 66 | 136 | 5.2 | 13.9 | 0.00 | 7.76 | 0.00 | 52 | 1010.2 |
| 20260504035621 | 66 | 144 | 5.2 | 18.2 | 0.00 | 7.76 | 0.00 | 55 | 1010.3 |
| 20260504035111 | 66 | 103 | 4.3 | 18.2 | 0.00 | 7.76 | 0.00 | 56 | 1010.3 |
| 20260504034619 | 67 | 139 | 5.2 | 14.8 | 0.00 | 7.76 | 0.00 | 54 | 1010.3 |
| 20260504034130 | 66 | 77 | 4.3 | 14.8 | 0.00 | 7.76 | 0.00 | 51 | 1010.3 |
| 20260504033618 | 67 | 115 | 4.3 | 12.2 | 0.00 | 7.76 | 0.00 | 53 | 1010.5 |
| 20260504033131 | 66 | 165 | 4.3 | 13.0 | 0.00 | 7.76 | 0.00 | 52 | 1010.3 |